Weather observations for the past three days for
Grant County Airport
Imperial (Metric)
Date Time (mdt) Wind (mph) Vis. (mi.) Weather Sky Cond. Temperature (ºF) Relative Humidity Wind Chill (°F) Heat Index (°F) Pressure Precipitation (in)
Air Dwpt 6 hour altimeter (in) sea level (mb) 1 hr 3 hr 6 hr
Max. Min.
22 23:35 Calm 10.00 Fair CLR 72.5 53.6 52% 30.2 0.0
22 23:15 NW 5 10.00 Fair CLR 72.5 53.8 52% 30.2 0.0
22 22:55 W 6 10.00 Fair CLR 73.8 54.5 51% 30.19 0.0
22 22:35 N 5 10.00 Fair CLR 75.6 54.7 48% 78 30.18 0.0
22 22:15 N 6 10.00 Fair CLR 76.6 54.9 47% 78 30.18 0.0
22 21:55 N 7 10.00 Fair CLR 76.3 55.4 49% 78 30.17 0.0
22 21:35 N 12 10.00 Fair CLR 75.7 55.6 50% 78 30.17 0.0
22 21:15 N 12 10.00 Partly Cloudy SCT110 76.3 55.6 49% 78 30.16 0.0
22 20:55 N 13 10.00 Fair CLR 76.1 55.4 49% 78 30.16 0.0
22 20:35 N 10 10.00 Fair CLR 77 55.4 47% 79 30.16 0.0
22 20:15 N 10 10.00 Partly Cloudy SCT085 SCT110 77.2 55.8 48% 79 30.16 0.0
22 19:55 N 16 10.00 Mostly Cloudy SCT085 BKN110 78.1 56.3 47% 79 30.16 0.0
22 19:35 N 15 G 21 10.00 Fair CLR 78.8 56.7 47% 80 30.15 0.0
22 19:15 N 15 10.00 Fair CLR 80.1 56.7 45% 80 30.15 0.0
22 18:55 N 14 10.00 Mostly Cloudy BKN110 81.1 56.3 43% 81 30.15 0.0
22 18:35 N 9 10.00 Mostly Cloudy BKN110 80.6 56.1 43% 81 30.15 0.0
22 18:15 N 13 10.00 Overcast OVC110 80.4 56.3 44% 81 30.15 0.0
22 17:55 N 12 10.00 Overcast OVC110 80.8 56.3 91.8 80.8 43% 81 30.15 0.0
22 17:35 N 12 10.00 Overcast OVC110 81.3 56.3 42% 81 30.16 0.0
22 17:10 NE 12 10.00 Overcast OVC110 81.9 55.8 41% 81 30.16 0.0
22 16:55 N 13 10.00 Overcast OVC100 82.4 55.4 40% 82 30.16 0.0
22 16:35 N 13 G 16 10.00 Overcast SCT080 OVC100 82.6 55.9 40% 82 30.16 0.0
22 16:15 N 15 G 18 10.00 Overcast OVC075 83.8 56.1 39% 83 30.16 0.0
22 15:55 N 12 G 17 10.00 Mostly Cloudy BKN075 BKN120 85.1 55.8 37% 84 30.17 0.0
22 15:35 SE 7 10.00 Mostly Cloudy SCT075 BKN120 88.9 50.9 27% 86 30.17 0.0
22 15:15 S 10 G 17 10.00 Partly Cloudy SCT075 90 51.8 27% 87 30.18 0.0
22 14:55 S 10 G 18 10.00 Partly Cloudy SCT080 90.7 52 27% 88 30.18 0.0
22 14:35 E 7 G 16 10.00 Partly Cloudy SCT080 90.1 52 27% 88 30.18 0.0
22 14:15 SE 9 10.00 Partly Cloudy SCT065 SCT080 88 52.7 30% 86 30.19 0.0
22 13:55 E 10 10.00 Partly Cloudy SCT065 86.4 53.1 32% 84 30.2 0.0
22 13:35 SE 14 G 22 10.00 Mostly Cloudy BKN065 88.9 53.2 30% 87 30.21 0.0
22 13:15 SE 15 G 21 10.00 Mostly Cloudy BKN065 BKN075 87.1 54 32% 85 30.21 0.0
22 12:55 SE 14 G 22 10.00 Partly Cloudy SCT065 86.4 54 33% 85 30.22 0.0
22 12:35 SE 7 G 17 10.00 Partly Cloudy SCT055 SCT085 87.4 53.2 31% 85 30.22 0.0
22 12:15 SE 16 G 20 10.00 Mostly Cloudy SCT055 BKN085 86 54.5 34% 84 30.23 0.0
22 11:55 SE 10 G 17 10.00 Partly Cloudy SCT055 83.8 55.8 85.8 72.1 38% 83 30.23 0.0
22 11:35 SE 9 10.00 Fair CLR 83.5 56.5 40% 83 30.23 0.0
22 11:15 E 8 G 18 10.00 Fair CLR 82.4 56.5 41% 82 30.24 0.0
22 10:55 E 9 10.00 Fair CLR 82.6 57.2 42% 82 30.24 0.0
22 10:35 E 6 10.00 Fair CLR 81.5 57.2 44% 81 30.24 0.0
22 10:15 NE 6 10.00 Fair CLR 80.2 57.4 46% 81 30.23 0.0
22 09:55 E 10 10.00 Fair CLR 79.9 57.4 46% 80 30.24 0.0
22 09:35 E 6 G 16 10.00 Partly Cloudy SCT120 78.4 57.7 49% 79 30.24 0.0
22 09:15 SE 9 10.00 Overcast OVC120 76.1 57.2 52% 78 30.25 0.0
22 08:55 SE 13 10.00 Mostly Cloudy BKN110 75.7 56.8 52% 78 30.25 0.0
22 08:35 E 10 10.00 Partly Cloudy SCT110 76.5 57.2 51% 78 30.24 0.0
22 08:15 E 10 10.00 Partly Cloudy SCT120 75.6 57.2 53% 78 30.24 0.0
22 07:55 E 12 10.00 Partly Cloudy SCT110 74.1 57.6 56% 30.24 0.0
22 07:35 E 8 10.00 Overcast OVC110 73.6 57.4 57% 30.24 0.0
22 07:15 E 7 10.00 Overcast SCT060 SCT070 OVC110 72.9 56.8 57% 30.23 0.0
22 06:55 E 8 10.00 Mostly Cloudy SCT070 SCT080 BKN110 72.5 57 58% 30.23 0.0
22 06:35 E 8 10.00 Mostly Cloudy SCT055 SCT070 BKN100 72.3 57 59% 30.23 0.0
22 06:15 E 9 10.00 Overcast BKN055 OVC070 72.5 57.2 59% 30.23 0.0
22 05:55 E 8 10.00 Overcast BKN055 OVC070 72.9 57.4 73.9 71.1 58% 30.22 0.0
22 05:35 E 3 10.00 Overcast BKN055 OVC070 71.6 56.5 59% 30.22 0.0
22 05:15 Calm 10.00 Overcast OVC070 72.1 56.7 58% 30.22 0.0
22 04:55 SE 5 10.00 Overcast SCT070 SCT080 OVC110 72.1 56.3 58% 30.22 0.0
22 04:35 Calm 10.00 Mostly Cloudy SCT080 BKN110 72.1 56.5 58% 30.21 0.0
22 04:15 Calm 10.00 Mostly Cloudy SCT070 BKN090 BKN110 72.5 56.8 58% 30.21 0.0
22 03:55 Calm 10.00 Overcast OVC070 72.1 57.2 60% 30.21 0.0
22 03:35 NW 3 10.00 Overcast OVC070 71.8 57.2 60% 30.22 0.0
22 03:15 Calm 10.00 Overcast OVC070 72.7 57.6 59% 30.21 0.0
22 02:55 SE 3 10.00 Mostly Cloudy BKN070 72.7 57.4 59% 30.21 0.0
22 02:35 E 6 10.00 Partly Cloudy SCT070 SCT085 SCT120 72.7 57.2 58% 30.21 0.0
22 02:15 E 7 10.00 Mostly Cloudy BKN070 BKN100 73.2 57 57% 30.21 0.0
22 01:55 E 7 10.00 Overcast BKN070 BKN085 OVC110 73.6 57.2 57% 30.22 0.0
22 01:35 E 7 10.00 Overcast SCT080 OVC110 73.4 58.3 59% 30.22 0.0
22 01:15 E 6 10.00 Overcast OVC110 73.4 59 61% 30.22 0.0
22 00:55 E 7 10.00 Overcast OVC110 73.6 59.4 61% 30.22 0.0
22 00:35 E 8 10.00 Overcast OVC110 73.4 59.9 63% 30.22 0.0
22 00:15 E 7 10.00 Overcast OVC110 73.8 59.5 61% 30.23 0.0
21 23:55 E 5 10.00 Mostly Cloudy BKN120 72.9 59.9 78.6 71.6 64% 30.23 0.0
21 23:35 NE 3 10.00 Partly Cloudy SCT120 72.7 60.4 66% 30.23 0.0
21 23:15 NE 3 10.00 Mostly Cloudy BKN110 72 61 68% 30.23 0.0
21 22:55 Calm 10.00 Mostly Cloudy BKN110 71.6 61.3 70% 30.23 0.0
21 22:35 SE 5 10.00 Fair CLR 71.6 61 69% 30.22 0.0
21 22:15 SE 8 10.00 Fair CLR 71.6 61 69% 30.22 0.0
21 21:55 SE 10 10.00 Fair CLR 72.1 61.3 69% 30.21 0.0
21 21:35 SE 12 10.00 Fair CLR 73 60.4 65% 30.21 0.0
21 21:15 SE 9 10.00 Fair CLR 74.3 60.8 63% 30.19 0.0
21 20:55 SE 9 10.00 Fair CLR 74.7 60.6 62% 30.19 0.0
21 20:35 E 10 10.00 Partly Cloudy SCT110 74.5 61.2 63% 30.17 0.0
21 20:15 E 12 10.00 Mostly Cloudy BKN110 75.4 60.8 61% 78 30.16 0.0
21 19:55 E 13 10.00 Partly Cloudy SCT110 75.6 61 61% 78 30.16 0.0
21 19:35 E 14 10.00 Fair CLR 76.3 61.2 60% 78 30.16 0.0
21 19:15 E 10 10.00 Fair CLR 77 61.2 58% 79 30.16 0.0
21 18:55 E 13 10.00 Fair CLR 78.1 61.2 56% 80 30.16 0.0
21 18:35 E 14 G 18 10.00 Mostly Cloudy BKN120 77.2 61.7 59% 79 30.15 0.0
21 18:15 E 14 G 18 10.00 Mostly Cloudy BKN120 77 61.7 59% 79 30.16 0.0
21 17:55 E 16 10.00 Partly Cloudy SCT120 77 61.7 79.9 73.2 59% 79 30.16 0.0
21 17:35 SE 14 G 26 10.00 Partly Cloudy SCT120 77.9 61.3 57% 79 30.17 0.0
21 17:15 SE 17 G 23 10.00 Partly Cloudy SCT120 79.5 60.6 53% 81 30.18 0.0
21 16:55 SE 14 G 17 10.00 Mostly Cloudy BKN120 78.4 61.2 55% 80 30.17 0.0
21 16:35 E 13 10.00 Mostly Cloudy BKN120 78.1 60.8 55% 80 30.17 0.0
21 16:15 E 14 10.00 Overcast OVC120 77 60.8 57% 79 30.19 0.0
21 15:55 E 12 G 21 10.00 Mostly Cloudy BKN120 76.1 60.4 58% 78 30.2 0.0
21 15:35 E 16 G 22 10.00 Mostly Cloudy SCT028 SCT037 BKN100 76.5 60.3 57% 78 30.21 0.0
21 15:15 SE 15 10.00 Mostly Cloudy BKN026 BKN055 BKN110 75.2 61 61% 77 30.22 0.0
21 14:55 E 12 10.00 Overcast SCT024 BKN085 OVC120 74.3 61.7 65% 30.23 0.0
21 14:35 SE 17 10.00 Overcast SCT022 BKN075 OVC120 73.8 61.5 66% 30.23 0.0
21 14:15 SE 17 G 23 10.00 Partly Cloudy SCT021 BKN030 SCT075 73.6 61.7 67% 30.24 0.0
21 13:55 E 16 G 21 10.00 Mostly Cloudy SCT025 BKN035 BKN045 74.1 61.2 64% 30.24 0.0
21 13:35 SE 20 G 24 10.00 Overcast BKN025 BKN031 OVC120 74.7 60.8 62% 30.24 0.0
21 13:15 E 18 G 23 10.00 Mostly Cloudy BKN025 BKN030 BKN037 74.8 60.8 62% 30.24 0.0
21 12:55 SE 16 G 23 10.00 Mostly Cloudy SCT025 BKN039 BKN050 75.6 60.8 60% 78 30.24 0.0
21 12:35 E 16 G 24 10.00 Overcast BKN025 BKN033 OVC042 75.2 61 61% 77 30.24 0.0
21 12:15 SE 18 G 24 10.00 Overcast BKN025 OVC033 74.8 60.8 62% 30.25 0.0
21 11:55 SE 18 G 25 10.00 Overcast OVC027 73.8 60.8 74.5 68.9 64% 30.25 0.0
21 11:35 SE 18 G 24 10.00 Overcast OVC025 74.5 60.4 62% 30.24 0.0
21 11:15 E 17 G 21 10.00 Overcast BKN025 BKN032 OVC040 74.5 60.8 63% 30.24 0.0
21 10:55 SE 18 G 23 10.00 Overcast BKN025 BKN032 OVC040 73.4 60.8 65% 30.25 0.0
21 10:35 SE 22 G 26 10.00 Overcast and Breezy OVC025 72.5 60.3 66% 30.25 0.0
21 10:15 SE 17 10.00 Overcast BKN025 OVC032 71.8 59.9 66% 30.24 0.0
21 09:55 E 17 10.00 Overcast BKN025 OVC032 72 60.1 66% 30.24 0.0
21 09:35 E 18 10.00 Overcast OVC025 71.4 59.9 67% 30.24 0.0
21 09:15 SE 17 G 24 10.00 Overcast OVC025 71.4 60.1 68% 30.24 0.0
21 08:55 SE 16 G 24 10.00 Overcast BKN025 OVC030 71.1 60.1 68% 30.24 0.0
21 08:35 E 22 G 25 10.00 Overcast and Breezy BKN023 BKN030 OVC038 70.5 60.1 70% 30.24 0.0
21 08:15 E 22 G 25 10.00 Overcast and Breezy SCT021 BKN032 OVC037 70.2 59.9 70% 30.23 0.0
21 07:55 E 17 G 23 10.00 Overcast OVC036 69.8 59.7 70% 30.23 0.0
21 07:35 E 20 10.00 Overcast OVC034 69.4 59.5 71% 30.23 0.0
21 07:15 E 17 10.00 Overcast OVC030 69.3 59.2 70% 30.21 0.0
21 06:55 E 15 10.00 Overcast OVC030 69.1 59 70% 30.21 0.0
21 06:35 E 18 10.00 Overcast SCT022 BKN032 OVC038 68.9 59 71% 30.2 0.0
21 06:15 E 16 G 22 10.00 Overcast BKN031 OVC040 68.9 59 71% 30.2 0.0
21 05:55 E 18 G 24 10.00 Overcast SCT024 BKN031 OVC040 69.1 59 72.3 68.9 70% 30.2 0.0
21 05:35 E 16 10.00 Overcast SCT024 OVC033 69.1 59 70% 30.19 0.0
21 05:15 E 13 10.00 Overcast SCT028 OVC035 69.3 59 70% 30.18 0.0
21 04:55 E 16 G 23 10.00 Overcast OVC033 69.1 58.8 70% 30.18 0.0
21 04:35 E 21 G 25 10.00 Overcast and Breezy SCT027 OVC033 69.1 59 70% 30.18 0.0
21 04:15 E 15 10.00 Overcast SCT026 OVC034 69.1 59 70% 30.18 0.0
21 03:55 E 13 G 18 10.00 Overcast SCT026 OVC036 69.1 59 70% 30.18 0.0
21 03:35 E 14 10.00 Mostly Cloudy SCT026 BKN036 68.9 58.6 70% 30.18 0.0
21 03:15 E 15 G 21 10.00 Mostly Cloudy SCT026 BKN034 68.9 58.6 70% 30.18 0.0
21 02:55 E 13 10.00 Mostly Cloudy BKN036 69.1 58.3 69% 30.18 0.0
21 02:35 E 14 10.00 Mostly Cloudy BKN036 69.3 58.1 68% 30.19 0.0
21 02:15 E 15 G 21 10.00 Partly Cloudy SCT038 69.4 57.7 67% 30.19 0.0
21 01:55 E 17 G 22 10.00 Fair CLR 70 57.7 65% 30.2 0.0
21 01:35 E 18 G 28 10.00 Fair CLR 70.3 57.6 64% 30.2 0.0
21 01:15 E 18 G 26 10.00 Partly Cloudy SCT041 70.7 57.6 63% 30.21 0.0
21 00:55 E 18 G 31 10.00 Partly Cloudy SCT041 70.9 57.4 63% 30.21 0.0
21 00:35 SE 24 G 31 10.00 Partly Cloudy and Breezy SCT043 71.2 57.6 62% 30.22 0.0
21 00:15 E 23 G 31 10.00 Partly Cloudy and Breezy SCT043 SCT065 71.8 57.7 61% 30.22 0.0
20 23:55 E 24 G 32 10.00 Mostly Cloudy and Breezy BKN065 72.5 58.1 85.6 72.5 61% 30.22 0.0
20 23:35 E 23 G 31 10.00 Overcast and Breezy OVC055 73 58.1 60% 30.22 0.0
20 23:15 E 23 G 33 10.00 Mostly Cloudy and Breezy BKN055 73.4 58.1 59% 30.22 0.0
20 22:55 SE 21 G 28 10.00 Mostly Cloudy and Breezy BKN055 73.6 58.1 59% 30.21 0.0
20 22:35 SE 22 G 30 10.00 Mostly Cloudy and Breezy BKN055 BKN065 74.1 57.9 57% 30.2 0.0
20 22:15 E 24 G 31 10.00 Mostly Cloudy and Breezy BKN055 BKN065 75 58.1 56% 78 30.19 0.0
20 21:55 E 26 G 35 10.00 Mostly Cloudy and Windy SCT055 BKN065 75.4 58.3 55% 78 30.18 0.0
20 21:35 E 23 G 31 10.00 Partly Cloudy and Breezy SCT065 SCT070 76.3 58.1 53% 78 30.17 0.0
20 21:15 E 30 G 35 10.00 Mostly Cloudy and Windy BKN070 77.4 57.4 50% 79 30.16 0.0
20 20:55 E 26 G 32 10.00 Partly Cloudy and Windy SCT065 77.7 57.2 49% 79 30.15 0.0
20 20:35 E 23 G 32 10.00 Partly Cloudy and Breezy SCT065 78.4 56.7 47% 79 30.15 0.0
20 20:15 SE 24 G 29 10.00 Partly Cloudy and Breezy SCT075 79.5 56.1 45% 80 30.14 0.0
20 19:55 SE 24 G 31 10.00 Partly Cloudy and Breezy SCT075 81 55 41% 81 30.13 0.0
20 19:35 SE 22 G 31 10.00 Partly Cloudy and Breezy SCT065 SCT075 82 54.7 39% 81 30.13 0.0
20 19:15 SE 25 G 31 10.00 Partly Cloudy and Breezy SCT065 SCT075 83.3 54.7 37% 82 30.12 0.0
20 18:55 SE 24 G 30 10.00 Mostly Cloudy and Breezy BKN065 BKN075 84.4 53.8 35% 83 30.12 0.0
20 18:35 E 24 G 31 10.00 Partly Cloudy and Breezy SCT065 85.1 54.3 35% 84 30.12 0.0
20 18:15 SE 21 G 33 10.00 Partly Cloudy and Breezy SCT065 83.3 53.4 36% 82 30.12 0.0
20 17:55 SE 21 G 32 10.00 Partly Cloudy and Breezy SCT065 85.3 52.9 88 81.3 33% 83 30.12 0.0
20 17:35 SE 23 G 30 10.00 Mostly Cloudy and Breezy BKN065 85.1 52.5 33% 83 30.12 0.0
20 17:15 E 24 G 31 10.00 Mostly Cloudy and Breezy BKN065 85.8 52.9 32% 84 30.12 0.0
20 16:55 SE 26 G 33 10.00 Mostly Cloudy and Windy BKN065 83.8 52.9 34% 82 30.14 0.0
20 16:35 SE 25 G 32 10.00 Partly Cloudy and Breezy SCT055 84.4 53.2 34% 83 30.15 0.0
20 16:15 E 22 G 32 10.00 Mostly Cloudy and Breezy BKN055 86.2 53.6 33% 84 30.16 0.0
20 15:55 E 25 G 35 10.00 Mostly Cloudy and Breezy BKN055 85.1 53.6 34% 83 30.16 0.0
20 15:35 SE 25 G 33 10.00 Partly Cloudy and Breezy SCT055 86 54.3 34% 84 30.17 0.0
20 15:15 SE 29 G 37 10.00 Mostly Cloudy and Windy BKN055 85.3 54.7 35% 84 30.18 0.0
20 14:55 E 25 G 35 10.00 Mostly Cloudy and Breezy BKN055 86 54.1 34% 84 30.19 0.0
20 14:35 E 26 G 33 10.00 Mostly Cloudy and Windy BKN055 85.5 54.1 34% 84 30.19 0.0
20 14:15 SE 28 G 35 10.00 Partly Cloudy and Windy SCT055 85.6 53.8 34% 84 30.2 0.0
20 13:55 SE 26 G 33 10.00 Partly Cloudy and Windy SCT055 85.5 53.8 34% 84 30.21 0.0
20 13:35 SE 25 G 38 10.00 Partly Cloudy and Breezy SCT055 85.5 54.3 34% 84 30.22 0.0
20 13:15 E 25 G 33 10.00 Mostly Cloudy and Breezy BKN049 83.8 54 36% 83 30.22 0.0
20 12:55 E 28 G 35 10.00 Partly Cloudy and Windy SCT049 83.3 54.1 37% 82 30.23 0.0
20 12:35 E 30 G 36 10.00 Partly Cloudy and Windy SCT049 82.8 54.3 38% 82 30.23 0.0
20 12:15 E 28 G 35 10.00 Partly Cloudy and Windy SCT047 82.8 54.5 38% 82 30.23 0.0
20 11:55 E 25 G 35 10.00 Mostly Cloudy and Breezy BKN047 81 54.7 81.1 68.9 40% 81 30.24 0.0
20 11:35 SE 30 G 36 10.00 Mostly Cloudy and Windy BKN045 80.4 54.9 41% 80 30.24 0.0
20 11:15 SE 30 G 35 10.00 Mostly Cloudy and Windy BKN045 BKN050 80.1 55.2 43% 80 30.24 0.0
20 10:55 SE 25 G 36 10.00 Mostly Cloudy and Breezy BKN045 81 55.8 42% 81 30.24 0.0
20 10:35 E 25 G 33 10.00 Mostly Cloudy and Breezy BKN045 78.8 55 44% 79 30.24 0.0
20 10:15 E 28 10.00 Overcast and Windy OVC043 77.5 55.4 47% 79 30.24 0.0
20 09:55 E 24 G 30 10.00 Overcast and Breezy BKN041 OVC050 76.8 55.2 47% 78 30.24 0.0
20 09:35 SE 23 G 30 10.00 Mostly Cloudy and Breezy SCT039 BKN050 77.2 55.4 47% 79 30.24 0.0
20 09:15 E 26 G 35 10.00 Mostly Cloudy and Windy SCT037 BKN050 76.1 55.8 49% 78 30.24 0.0
20 08:55 SE 25 G 32 10.00 Mostly Cloudy and Breezy SCT035 BKN050 74.8 56.1 52% 30.24 0.0
20 08:35 E 25 G 33 10.00 Mostly Cloudy and Breezy BKN033 BKN038 75.4 56.7 52% 78 30.24 0.0
20 08:15 E 26 G 30 10.00 Mostly Cloudy and Windy BKN031 73.4 57.2 57% 30.23 0.0
20 07:55 E 21 G 28 10.00 Mostly Cloudy and Breezy BKN029 BKN046 72.3 57.9 61% 30.23 0.0
20 07:35 E 24 G 30 10.00 Mostly Cloudy and Breezy SCT031 BKN048 71.1 57.7 63% 30.22 0.0
20 07:15 E 16 G 24 10.00 Mostly Cloudy BKN048 BKN110 71.1 57.9 63% 30.22 0.0
20 06:55 E 18 G 26 10.00 Mostly Cloudy SCT028 SCT050 BKN110 70.2 58.3 66% 30.21 0.0
20 06:35 E 17 10.00 Mostly Cloudy SCT028 BKN048 BKN110 69.3 58.3 68% 30.2 0.0
20 06:15 E 17 G 23 10.00 Partly Cloudy SCT028 SCT033 SCT120 68.9 58.1 69% 30.18 0.0
20 05:55 E 18 G 26 10.00 Partly Cloudy SCT030 69.1 58.1 76.1 69.1 68% 30.18 0.0
20 05:35 E 17 G 22 10.00 Fair CLR 69.3 57.6 66% 30.17 0.0
20 05:15 E 14 G 23 10.00 Fair CLR 69.6 57.2 65% 30.16 0.0
20 04:55 E 18 G 23 10.00 Fair CLR 69.8 57.4 65% 30.16 0.0
20 04:35 E 14 10.00 Fair CLR 69.8 57.4 65% 30.16 0.0
20 04:15 E 16 G 21 10.00 Fair CLR 70.7 57.2 62% 30.15 0.0
20 03:55 E 13 G 17 10.00 Fair CLR 70.7 56.8 62% 30.15 0.0
20 03:35 E 18 G 22 10.00 Fair CLR 71.1 57 61% 30.15 0.0
20 03:15 E 18 G 26 10.00 Partly Cloudy SCT041 71.6 56.7 59% 30.15 0.0
20 02:55 E 22 G 26 10.00 Overcast and Breezy OVC041 72.5 56.7 58% 30.16 0.0
20 02:35 E 17 10.00 Overcast OVC043 72.9 56.3 56% 30.16 0.0
20 02:15 E 23 10.00 Mostly Cloudy and Breezy BKN043 73.4 55.8 54% 30.16 0.0
20 01:55 E 17 G 25 10.00 Partly Cloudy SCT045 73 55.8 55% 30.16 0.0
20 01:35 SE 18 G 24 10.00 Partly Cloudy SCT045 73 55.9 55% 30.16 0.0
20 01:15 SE 13 G 18 10.00 Fair CLR 73.4 55.8 54% 30.15 0.0
20 00:55 E 21 G 26 10.00 Fair and Breezy CLR 74.3 55.4 52% 30.15 0.0
20 00:35 E 17 G 23 10.00 Fair CLR 74.3 54.3 50% 30.14 0.0
20 00:15 E 18 G 29 10.00 Fair CLR 75.4 53.6 47% 78 30.13 0.0
Date Time (mdt) Wind (mph) Vis. (mi.) Weather Sky Cond. Air Dwpt Max. Min. Relative Humidity Wind Chill (°F) Heat Index (°F) altimeter (in) sea level (mb) 1 hr 3 hr 6 hr
6 hour
Temperature (ºF) Pressure Precipitation (in)